Regional Weather Roundup
Issued by NWS State College, PA

Home | Current Version | Previous Version | Graphics & Text | Print | Product List | Glossary Off
Versions: 1 2 3 4 5 6 7 8 9 10 11 12 13 14 15 16 17 18 19 20 21 22 23 24 25 26 27 28 29 30 31 32 33 34 35 36 37 38 39 40 41 42 43 44 45 46 47 48 49 50

000
ASUS41 KCTP 290010
RWRCTP

REGIONAL WEATHER ROUNDUP
NATIONAL WEATHER SERVICE STATE COLLEGE PA
800 PM EDT THU MAY 28 2015

Note: "fair" indicates few or no clouds below 12,000 feet with no
significant weather and/or obstructions to visibility.

* = STATION THAT DOES NOT REPORT PRECIPITATION /E.G. RAIN...SNOW...ETC/
    THUNDER OR FOG.

PAZ002>004-007>009-013>016-020>023-029>032-290100-
WESTERN PENNSYLVANIA

CITY           SKY/WX    TMP DP  RH WIND       PRES   REMARKS
ERIE           CLEAR     72  49  44 NE7       30.24S
MEADVILLE      CLEAR     74  53  48 CALM      30.25S
FRANKLIN*      CLEAR     72  52  49 CALM      30.26S
NEW CASTLE     FAIR      76  58  53 CALM      30.23S
BEAVER COUNTY  CLEAR     75  52  43 CALM      30.23S
BUTLER*        CLEAR     73  52  46 E5        30.25S
PITTSBURGH INT PTCLDY    78  53  41 NE5       30.22S
PITTSBURGH     CLEAR     75  52  44 NE3       30.22R
INDIANA*       CLEAR     75  54  46 CALM      30.27R
LATROBE        PTCLDY    77  57  50 NE7       30.24R
WASHINGTON CO* CLEAR     73  61  64 CALM      30.23S
$$

PAZ004>006-010>012-017>019-024>028-033>037-041-042-045-046-049>053-290100-
CENTRAL PENNSYLVANIA

CITY           SKY/WX    TMP DP  RH WIND       PRES   REMARKS
BRADFORD       CLEAR     70  49  47 N3        30.28R
DUBOIS         CLEAR     75  49  39 N6        30.26R
CLEARFIELD     CLEAR     76  51  41 NE3       30.26R
JOHNSTOWN      PTCLDY    71  54  54 NE3       30.27R
ALTOONA        MOCLDY    75  54  47 N7        30.24R
STATE COLLEGE  CLEAR     75  52  43 CALM      30.24R
WILLIAMSPORT   PTCLDY    77  52  41 NE5       30.21R
SELINSGROVE    MOCLDY    79  51  37 N10       30.20R
FT INDIANTOWN  MOCLDY    75  60  58 N5        30.18S
CAPITAL CITY   MOCLDY    83  54  36 N6        30.17R
HARRISBURG     MOCLDY    82  57  42 N5        30.17R
YORK           MOCLDY    77  66  68 CALM      30.18R
$$

PAZ038>040-043-044-047-048-054-055-060>062-067>071-290100-
EASTERN PENNSYLVANIA

CITY           SKY/WX    TMP DP  RH WIND       PRES   REMARKS
SCRANTON       CLEAR     75  50  41 N9        30.24R
MOUNT POCONO   PTCLDY    70  47  43 N8        30.26R
ALLENTOWN      MOCLDY    80  54  40 N9        30.19R
QUAKERTOWN*    MOCLDY    81  59  47 CALM      30.19R
READING        MOCLDY    81  55  40 N8        30.17R
LANCASTER      MOCLDY    80  59  48 NW3       30.17S
COATESVILLE    PTCLDY    79  59  50 N3        30.20R
POTTSTOWN      MOCLDY    79  59  50 CALM      30.18R
BLUE BELL      MOCLDY    79  64  61 CALM      30.16R
DOYLESTOWN     MOCLDY    81  54  39 NW3       30.17R
WILLOW GROVE   NOT AVBL
NORTH PHILA    MOCLDY    84  57  39 NW5       30.17R
PHILADELPHIA   MOCLDY    82  67  60 SW6       30.16R
$$



USA.gov is the U.S. government's official web portal to all federal, state and local government web resources and services.